Hot Springs, VA

4:16 AM EDT on August 18, 2017 (GMT -0400)
Ingalls

Weather History for KHSP - November, 2013

Change the Weather History Date:

Thursday, November 7, 2013

  Actual Average Record
Temperature  
Mean Temperature 40 °F -  
Max Temperature 53 °F 48 °F 64 °F (2008)
Min Temperature 28 °F 34 °F 23 °F (2010)
Degree Days  
Heating Degree Days 24    
Moisture  
Dew Point 38 °F    
Average Humidity 84    
Maximum Humidity 100    
Minimum Humidity 69    
Precipitation  
Precipitation 0.06 in - - ()
Sea Level Pressure  
Sea Level Pressure 30.05 in    
Wind  
Wind Speed 16 mph (West)    
Max Wind Speed 24 mph    
Max Gust Speed 36 mph    
Visibility 8 miles    
Events Rain    
Averages and records for this station are not official NWS values.
T = Trace of Precipitation, MM = Missing Value Source: NWS Daily Summary

Daily Weather History Graph

Daily Weather History Graph

Search for Another Location

Airport or City:

Trip Planner

Search our weather history database for the weather conditions in past years. The results will help you decide how hot, cold, wet, or windy it might be!

Date:

Astronomy

Nov. 07, 2013 Rise Set
Actual Time 6:51 AM EST 5:13 PM EST
Civil Twilight 6:23 AM EST 5:41 PM EST
Nautical Twilight 5:52 AM EST 6:12 PM EST
Astronomical Twilight 5:21 AM EST 6:43 PM EST
Moon 10:57 AM EST (11/7) 9:24 PM EST (11/7)
Length of Visible Light 11h 17m
Length of Day
10h 22m
Waxing Crescent, 22% of the Moon is Illuminated
Nov 7
Waxing Crescent
Nov 10
First Quarter
Nov 17
Full
Nov 25
Last Quarter
Dec 2
New

Hourly Weather History & Observations

Time (EST) Temp. Windchill Dew Point Humidity Pressure Visibility Wind Dir Wind Speed Gust Speed Precip Events Conditions
12:15 AM 50.0 °F - 46.4 °F 87% 30.16 in 10.0 mi SSW 11.5 mph 17.3 mph N/A   Clear
12:35 AM 50.0 °F - 46.4 °F 87% 30.15 in 10.0 mi SW 8.1 mph 16.1 mph N/A   Clear
12:55 AM 50.0 °F - 46.4 °F 87% 30.15 in 10.0 mi SW 17.3 mph 21.9 mph N/A   Clear
1:15 AM 50.0 °F - 48.2 °F 94% 30.14 in 10.0 mi SW 16.1 mph 26.5 mph N/A   Clear
1:35 AM 50.0 °F - 46.4 °F 87% 30.12 in 10.0 mi SW 15.0 mph - N/A   Clear
1:55 AM 51.8 °F - 46.4 °F 82% 30.11 in 10.0 mi SW 16.1 mph 21.9 mph N/A   Clear
2:15 AM 51.8 °F - 46.4 °F 82% 30.10 in 10.0 mi SW 18.4 mph 24.2 mph N/A   Clear
2:55 AM 51.8 °F - 46.4 °F 82% 30.08 in 10.0 mi SW 12.7 mph 20.7 mph N/A   Clear
3:15 AM 51.8 °F - 46.4 °F 82% 30.07 in 10.0 mi SW 13.8 mph - N/A   Clear
3:35 AM 51.8 °F - 46.4 °F 82% 30.06 in 10.0 mi WSW 16.1 mph 21.9 mph N/A   Mostly Cloudy
3:55 AM 53.6 °F - 46.4 °F 77% 30.05 in 10.0 mi WSW 16.1 mph 21.9 mph N/A   Overcast
4:15 AM 51.8 °F - 46.4 °F 82% 30.05 in 10.0 mi WSW 16.1 mph - N/A   Overcast
4:35 AM 51.8 °F - 46.4 °F 82% 30.05 in 10.0 mi WSW 15.0 mph - N/A   Overcast
4:55 AM 51.8 °F - 46.4 °F 82% 30.04 in 10.0 mi WSW 15.0 mph 19.6 mph N/A   Overcast
5:15 AM 51.8 °F - 46.4 °F 82% 30.04 in 10.0 mi West 18.4 mph 21.9 mph N/A   Overcast
5:35 AM 48.2 °F - 46.4 °F 93% 30.04 in 0.2 mi West 17.3 mph - N/A Rain Rain
5:55 AM 48.2 °F - 48.2 °F 100% 30.03 in 0.2 mi West 17.3 mph 25.3 mph N/A Rain Light Rain
6:15 AM 48.2 °F - 48.2 °F 100% 30.01 in 0.2 mi West 17.3 mph 23.0 mph N/A Rain Light Rain
6:35 AM 48.2 °F - 48.2 °F 100% 30.02 in 0.2 mi West 11.5 mph - N/A Rain Light Rain
6:55 AM 48.2 °F - 48.2 °F 100% 30.01 in 0.2 mi West 13.8 mph - 0.01 in Rain Light Rain
7:15 AM 48.2 °F - 48.2 °F 100% 30.01 in 0.2 mi West 15.0 mph 18.4 mph 0.01 in Rain Light Rain
7:35 AM 48.2 °F - 48.2 °F 100% 30.02 in 0.2 mi West 16.1 mph - 0.02 in Rain Light Rain
7:55 AM 48.2 °F - 48.2 °F 100% 30.02 in 0.2 mi West 16.1 mph 21.9 mph N/A Rain Rain
8:15 AM 48.2 °F - 48.2 °F 100% 30.02 in 0.2 mi West 16.1 mph 20.7 mph 0.01 in Rain Light Rain
8:35 AM 48.2 °F - 48.2 °F 100% 30.02 in 0.2 mi West 12.7 mph - 0.01 in Rain Light Rain
8:55 AM 48.2 °F - 48.2 °F 100% 30.03 in 0.2 mi West 16.1 mph 20.7 mph N/A Rain Light Rain
9:15 AM 48.2 °F - 48.2 °F 100% 30.02 in 0.2 mi West 16.1 mph 19.6 mph 0.01 in Rain Light Rain
9:35 AM 48.2 °F - 48.2 °F 100% 30.01 in 0.2 mi West 23.0 mph 28.8 mph 0.02 in Rain Rain
9:55 AM 46.4 °F 40.1 °F 46.4 °F 100% 30.01 in 0.2 mi West 15.0 mph 25.3 mph N/A   Unknown
10:15 AM 46.4 °F 39.8 °F 46.4 °F 100% 30.02 in 10.0 mi West 16.1 mph 24.2 mph N/A   Overcast
10:35 AM 46.4 °F 38.7 °F 46.4 °F 100% 30.02 in 10.0 mi West 20.7 mph 26.5 mph N/A   Mostly Cloudy
10:55 AM 46.4 °F 39.0 °F 46.4 °F 100% 30.02 in 10.0 mi West 19.6 mph 26.5 mph N/A   Mostly Cloudy
11:15 AM 46.4 °F 39.5 °F 46.4 °F 100% 30.03 in 10.0 mi West 17.3 mph 29.9 mph N/A   Overcast
11:35 AM 44.6 °F 38.1 °F 44.6 °F 100% 30.02 in 10.0 mi WNW 13.8 mph 25.3 mph N/A   Overcast
11:55 AM 44.6 °F 37.2 °F 41.0 °F 87% 30.03 in 10.0 mi WNW 17.3 mph 29.9 mph N/A   Overcast
12:15 PM 42.8 °F 35.8 °F 41.0 °F 93% 30.01 in 10.0 mi WNW 13.8 mph 27.6 mph N/A   Overcast
12:35 PM 42.8 °F 34.8 °F 39.2 °F 87% 30.02 in 10.0 mi WNW 17.3 mph 27.6 mph N/A   Overcast
12:55 PM 42.8 °F 34.0 °F 37.4 °F 81% 30.02 in 10.0 mi WNW 20.7 mph 27.6 mph N/A   Mostly Cloudy
1:15 PM 44.6 °F 35.9 °F 35.6 °F 71% 30.02 in 10.0 mi West 23.0 mph 29.9 mph N/A   Mostly Cloudy
1:35 PM 42.8 °F 35.1 °F 35.6 °F 76% 30.03 in 10.0 mi WNW 16.1 mph 26.5 mph N/A   Mostly Cloudy
1:55 PM 42.8 °F 33.3 °F 33.8 °F 70% 30.03 in 10.0 mi West 24.2 mph 31.1 mph N/A   Mostly Cloudy
2:15 PM 41.0 °F 31.9 °F 33.8 °F 76% 30.03 in 10.0 mi WNW 19.6 mph 29.9 mph N/A   Scattered Clouds
2:35 PM 41.0 °F 32.2 °F 32.0 °F 70% 30.04 in 10.0 mi WNW 18.4 mph 25.3 mph N/A   Scattered Clouds
2:55 PM 39.2 °F 29.8 °F 32.0 °F 75% 30.03 in 10.0 mi West 18.4 mph 25.3 mph N/A   Mostly Cloudy
3:15 PM 39.2 °F 29.8 °F 30.2 °F 70% 30.03 in 10.0 mi WNW 18.4 mph 26.5 mph N/A   Mostly Cloudy
3:35 PM 39.2 °F 29.6 °F 30.2 °F 70% 30.04 in 10.0 mi WNW 19.6 mph 24.2 mph N/A   Scattered Clouds
3:55 PM 37.4 °F 28.9 °F 30.2 °F 75% 30.05 in 10.0 mi WNW 13.8 mph 21.9 mph N/A   Mostly Cloudy
4:15 PM 35.6 °F 25.5 °F 30.2 °F 81% 30.05 in 10.0 mi West 17.3 mph 24.2 mph N/A   Overcast
4:35 PM 35.6 °F 25.5 °F 30.2 °F 81% 30.05 in 10.0 mi West 17.3 mph 24.2 mph N/A   Overcast
4:55 PM 35.6 °F 26.2 °F 28.4 °F 75% 30.06 in 10.0 mi West 15.0 mph 21.9 mph N/A   Overcast
5:55 PM 33.8 °F 22.8 °F 26.6 °F 75% 30.06 in 10.0 mi WNW 18.4 mph 31.1 mph N/A   Mostly Cloudy
6:15 PM 33.8 °F 22.8 °F 26.6 °F 75% 30.07 in 10.0 mi WNW 18.4 mph 35.7 mph N/A   Mostly Cloudy
6:35 PM 33.8 °F 24.3 °F 26.6 °F 75% 30.08 in 10.0 mi WNW 13.8 mph 32.2 mph N/A   Overcast
6:55 PM 33.8 °F 23.2 °F 26.6 °F 75% 30.07 in 10.0 mi WNW 17.3 mph 31.1 mph N/A   Overcast
7:15 PM 33.8 °F 22.2 °F 26.6 °F 75% 30.08 in 10.0 mi WNW 20.7 mph 27.6 mph N/A   Overcast
7:35 PM 33.8 °F 23.2 °F 26.6 °F 75% 30.07 in 10.0 mi WNW 17.3 mph 27.6 mph N/A   Overcast
7:55 PM 33.8 °F 24.3 °F 24.8 °F 70% 30.07 in 10.0 mi WNW 13.8 mph 26.5 mph N/A   Overcast
8:15 PM 33.8 °F 23.2 °F 24.8 °F 70% 30.07 in 10.0 mi WNW 17.3 mph 25.3 mph N/A   Overcast
8:35 PM 33.8 °F 23.5 °F 26.6 °F 75% 30.07 in 10.0 mi WNW 16.1 mph 26.5 mph N/A   Overcast
8:55 PM 32.0 °F 19.8 °F 24.8 °F 75% 30.08 in 10.0 mi WNW 20.7 mph 29.9 mph N/A   Overcast
9:15 PM 32.0 °F 19.8 °F 24.8 °F 75% 30.08 in 10.0 mi NW 20.7 mph 29.9 mph N/A   Mostly Cloudy
9:35 PM 30.2 °F 17.1 °F 23.0 °F 75% 30.07 in 10.0 mi WNW 21.9 mph 34.5 mph N/A   Mostly Cloudy
9:55 PM 30.2 °F 20.8 °F 23.0 °F 75% 30.08 in 10.0 mi WNW 11.5 mph 21.9 mph N/A   Mostly Cloudy
10:15 PM 30.2 °F 18.1 °F 23.0 °F 75% 30.08 in 10.0 mi WNW 18.4 mph 29.9 mph N/A   Overcast
10:35 PM 30.2 °F 18.1 °F 21.2 °F 69% 30.08 in 10.0 mi WNW 18.4 mph 26.5 mph N/A   Overcast
10:55 PM 30.2 °F 17.1 °F 21.2 °F 69% 30.07 in 10.0 mi WNW 21.9 mph 35.7 mph N/A   Mostly Cloudy
11:15 PM 30.2 °F 18.9 °F 21.2 °F 69% 30.08 in 10.0 mi WNW 16.1 mph 28.8 mph N/A   Mostly Cloudy
11:35 PM 28.4 °F 15.8 °F 21.2 °F 74% 30.08 in 10.0 mi WNW 18.4 mph 23.0 mph N/A   Mostly Cloudy
11:55 PM 28.4 °F 17.0 °F 21.2 °F 74% 30.08 in 10.0 mi WNW 15.0 mph 25.3 mph N/A   Scattered Clouds